Tonopah, NV

12:40 PM PST on February 20, 2017 (GMT -0800)
Las Vegas

Weather History for KBJN - March, 2013

Change the Weather History Date:

Sunday, March 31, 2013

  Actual Average (KTPH) Record (KTPH)
Temperature  
Mean Temperature 50 °F -  
Max Temperature 63 °F 57 °F 78 °F (1966)
Min Temperature 37 °F 30 °F 12 °F (1977)
Degree Days  
Heating Degree Days 15    
Moisture  
Dew Point 26 °F    
Average Humidity 42    
Maximum Humidity 79    
Minimum Humidity 16    
Precipitation  
Precipitation 0.00 in - - ()
Sea Level Pressure  
Sea Level Pressure 30.20 in    
Wind  
Wind Speed 12 mph (SW)    
Max Wind Speed 28 mph    
Max Gust Speed 37 mph    
Averages and records for this station are not official NWS values.
T = Trace of Precipitation, MM = Missing Value Source: NWS Daily Summary

Daily Weather History Graph

Daily Weather History Graph

Search for Another Location

Airport or City:

Trip Planner

Search our weather history database for the weather conditions in past years. The results will help you decide how hot, cold, wet, or windy it might be!

Date:

Astronomy

Mar. 31, 2013 Rise Set
Actual Time 6:31 AM PDT 7:07 PM PDT
Civil Twilight 6:05 AM PDT 7:33 PM PDT
Nautical Twilight 5:34 AM PDT 8:04 PM PDT
Astronomical Twilight 5:02 AM PDT 8:36 PM PDT
Moon No Moon Rise 9:28 AM PDT (3/31)
Length of Visible Light 13h 28m
Length of Day
12h 35m
Waning Gibbous, 76% of the Moon is Illuminated
Mar 31
Waning Gibbous
Apr 2
Last Quarter
Apr 10
New
Apr 18
First Quarter
Apr 25
Full

Hourly Weather History & Observations

Time (PDT) Temp. Windchill Dew Point Humidity Pressure Visibility Wind Dir Wind Speed Gust Speed Precip Events Conditions
12:56 AM 42.1 °F 37.1 °F 24.1 °F 49% 30.33 in - WNW 8.1 mph - N/A   Clear
1:56 AM 41.0 °F 35.8 °F 24.1 °F 51% 30.32 in - WNW 8.1 mph - N/A   Clear
2:56 AM 37.9 °F 32.7 °F 23.0 °F 55% 30.31 in - WNW 6.9 mph - N/A   Clear
3:56 AM 39.0 °F 34.8 °F 24.1 °F 55% 30.31 in - WNW 5.8 mph - N/A   Mostly Cloudy
4:56 AM 41.0 °F 37.1 °F 25.0 °F 53% 30.30 in - WNW 5.8 mph - N/A   Mostly Cloudy
5:56 AM 44.1 °F 41.5 °F 25.0 °F 47% 30.30 in - Variable 4.6 mph - N/A   Partly Cloudy
7:56 AM 46.0 °F - 28.0 °F 50% 30.31 in - Calm Calm - N/A   Mostly Cloudy
8:43 AM 53.6 °F - 28.4 °F 38% 30.06 in - SSE 8.1 mph - N/A   Scattered Clouds
8:56 AM 54.0 °F - 28.9 °F 38% 30.30 in - South 11.5 mph - N/A   Clear
9:56 AM 57.0 °F - 30.0 °F 36% 30.31 in - SSE 9.2 mph - N/A   Clear
10:56 AM 59.0 °F - 30.0 °F 33% 30.30 in - South 8.1 mph - N/A   Clear
11:53 AM 60.8 °F - 30.2 °F 31% 30.05 in - South 17.3 mph 31.1 mph N/A   Scattered Clouds
11:56 AM 59.0 °F - 30.9 °F 35% 30.28 in - South 23.0 mph 31.1 mph N/A   Scattered Clouds
12:56 PM 62.1 °F - 26.1 °F 25% 30.26 in - South 27.6 mph 35.7 mph N/A   Clear
1:56 PM 63.0 °F - 21.9 °F 21% 30.24 in - South 27.6 mph 36.8 mph N/A   Clear
2:56 PM 63.0 °F - 16.0 °F 16% 30.22 in - South 24.2 mph 33.4 mph N/A   Unknown
3:56 PM 61.0 °F - 17.1 °F 18% 30.21 in - SSW 20.7 mph 34.5 mph N/A   Partly Cloudy
4:56 PM 61.0 °F - 18.0 °F 19% 30.21 in - SSW 17.3 mph 25.3 mph N/A   Unknown
6:56 PM 55.0 °F - 21.0 °F 27% 30.19 in - South 15.0 mph - N/A   Mostly Cloudy
7:56 PM 53.1 °F - 25.0 °F 34% 30.20 in - South 15.0 mph - N/A   Overcast
8:10 PM 53.6 °F - 26.6 °F 35% 29.95 in - SSW 15.0 mph 21.9 mph N/A   Overcast
8:56 PM 51.1 °F - 28.0 °F 41% 30.21 in - SSW 11.5 mph - N/A   Scattered Clouds
9:39 PM 51.8 °F - 30.2 °F 44% 29.96 in - SSW 15.0 mph 23.0 mph 0.00 in Rain Light Rain
9:46 PM 48.2 °F - 26.6 °F 43% 29.96 in - West 8.1 mph 23.0 mph 0.00 in   Overcast
9:56 PM 48.0 °F - 28.9 °F 48% 30.22 in - West 10.4 mph 16.1 mph 0.00 in   Overcast
10:36 PM 41.0 °F 30.9 °F 33.8 °F 76% 29.96 in - NW 24.2 mph 33.4 mph 0.00 in Rain Light Rain
10:56 PM 41.0 °F 31.4 °F 34.0 °F 76% 30.22 in - NW 21.9 mph 29.9 mph 0.00 in   Partly Cloudy
11:56 PM 41.0 °F 31.6 °F 35.1 °F 79% 30.23 in - WNW 20.7 mph 29.9 mph N/A   Scattered Clouds